Regional Weather Roundup
Issued by NWS Midland/Odessa, TX

Home | Current Version | Previous Version | Text Only | Print | Product List | Glossary On
Versions: 1 2 3 4 5 6 7 8 9 10 11 12 13 14 15 16 17 18 19 20 21 22 23 24 25 26 27 28 29 30 31 32 33 34 35 36 37 38 39 40 41 42 43 44 45 46 47 48 49 50
000
ASUS44 KMAF 012010
RWRMAF
MIDLAND AREA WEATHER ROUNDUP
NATIONAL WEATHER SERVICE MIDLAND TX
200 PM CST WED MAR 01 2017

...IN SOUTHWEST TEXAS AND SOUTHEAST NEW MEXICO...

CITY           SKY/WX    TMP DP  RH WIND       PRES   REMARKS
ALPINE         SUNNY     62  24  22 NE10      30.30F
ANDREWS        FAIR      56  17  21 NE3       30.28F
ARTESIA        SUNNY     57  21  24 CALM      30.26F
BIG SPRING     SUNNY     57  14  18 NE10G20   30.30F
CARLSBAD       SUNNY     58  22  24 SE5       30.25F
DRYDEN           N/A     72  26  18 MISG      30.19F
FORT STOCKTON  SUNNY     62  24  23 NW6       30.26F
GUAD PASS      SUNNY     59  24  26 VRB6      30.28F
HOBBS          SUNNY     55  16  21 VRB5      30.28F
MARFA          SUNNY     66  19  16 NW10      30.24F
MIDLAND AIRPK  SUNNY     60  16  18 NE8       30.27F
MIDLAND INTL   SUNNY     59  17  19 E10G17    30.26F
ODESSA         SUNNY     59  17  19 E13       30.27F
PECOS          SUNNY     62  23  22 NW5       30.26F
PRESIDIO       FAIR      71  23  16 CALM      30.20F
SEMINOLE       SUNNY     56  17  21 E3        30.28F
SNYDER         SUNNY     55  14  19 NE10G18   30.28F
WINK           SUNNY     63  21  20 N9        30.25F
$$
...OTHER STATIONS IN TEXAS...

CITY           SKY/WX    TMP DP  RH WIND       PRES   REMARKS
ABILENE        SUNNY     58  15  18 N13G23    30.26F
AMARILLO       SUNNY     52  11  19 N5        30.29F
AUSTIN         PTSUNNY   73  40  30 N23       30.14F
BROWNSVILLE    SUNNY     86  68  54 CALM      29.94F
CORPUS CHRISTI CLOUDY    79  69  71 E8        29.99F
DALLAS FTW     MOSUNNY   67  14  13 N21G26    30.20F
DEL RIO        SUNNY     76  29  17 N12G24    30.15F
EL PASO        MOSUNNY   60  17  18 VRB5      30.27F
HOUSTON INT    CLOUDY    82  50  32 NW17      30.02S
LUBBOCK        MOSUNNY   55   9  16 E10       30.27F
SAN ANGELO     SUNNY     61  20  20 NE10G20   30.25F
SAN ANTONIO    PTSUNNY   75  39  27 NE16      30.13F
WACO           SUNNY     66  30  26 N17G26    30.19F
WICHITA FALLS  NOT AVBL
$$
...OTHER LOCATIONS IN NEW MEXICO...

CITY           SKY/WX    TMP DP  RH WIND       PRES   REMARKS
ALAMAGORDO     SUNNY     57  14  18 NW7G20    30.27F
ALBUQUERQUE    SUNNY     45  -1  14 NW9G22    30.30F
CANNON AFB     SUNNY     51  19  28 S8        30.26F
CLOVIS         SUNNY     52  21  30 SE9       30.27F
HOLLOMAN AFB     N/A     57  16  19 NW12G18   30.29F
ROSWELL        SUNNY     59  19  21 SE6       30.26F
RUIDOSO        SUNNY     46  10  23 N10G17    30.28F
SANTA FE       SUNNY     43   7  22 NW8G21    30.27F WCI  38
TRUTH OR CONSE SUNNY     54  19  25 VRB5      30.27F
TUCUMCARI      SUNNY     52  17  25 S8        30.25F
$$



USA.gov is the U.S. government's official web portal to all federal, state and local government web resources and services.